Location: Bambrugge
(50.9212°N, 3.9299°E)
Time: 14:22:38
(UTC+00:00)

Cosmos 1703 - Pass Details

Date: 23 May 2024
Orbit: 486 x 499 km, 82.5° (Epoch: 18 June)

Event Time Altitude Azimuth Distance (km) Brightness Sun altitude
Exits shadow 02:01:41 11° 170° (S) 1,660 5.3 -12.0°
Maximum altitude 02:05:11 50° 95° (E) 649 3.9 -11.7°
Drops below altitude 10° 02:08:50 10° 20° (NNE) 1,714 7.2 -11.4°
Sets 02:10:59 0° 15° (NNE) 2,600 8.2 -11.2°
